Weather History for KDUA - February, 2013

Change the Weather History Date:

Sunday, February 10, 2013

  Actual Average Record
Temperature  
Mean Temperature 54 °F -  
Max Temperature 64 °F - - ()
Min Temperature 44 °F - - ()
Degree Days  
Heating Degree Days 11    
Growing Degree Days 4 (Base 50)    
Moisture  
Dew Point 36 °F    
Average Humidity 53    
Maximum Humidity 100    
Minimum Humidity 26    
Precipitation  
Precipitation 0.65 in - - ()
Sea Level Pressure  
Sea Level Pressure 29.84 in    
Wind  
Wind Speed 11 mph (West)    
Max Wind Speed 20 mph    
Max Gust Speed 24 mph    
Visibility 8 miles    
Events Rain , Thunderstorm    
T = Trace of Precipitation, MM = Missing Value Source: NWS Daily Summary

Daily Weather History Graph

Daily Weather History Graph

Search for Another Location

Airport or City:

Trip Planner

Search our weather history database for the weather conditions in past years. The results will help you decide how hot, cold, wet, or windy it might be!

Date:

Astronomy

Feb. 10, 2013 Rise Set
Actual Time 7:14 AM CST 6:05 PM CST
Civil Twilight 6:49 AM CST 6:31 PM CST
Nautical Twilight 6:19 AM CST 7:00 PM CST
Astronomical Twilight 5:50 AM CST 7:29 PM CST
Moon 7:08 AM CST (2/10) 6:52 PM CST (2/10)
Length of Visible Light 11h 42m
Length of Day
10h 50m
New Moon, 0% of the Moon is Illuminated
Feb 10
New Moon
Feb 17
First Quarter
Feb 25
Full
Mar 4
Last Quarter
Mar 11
New

Hourly Weather History & Observations

Time (CST) Temp. Windchill Dew Point Humidity Pressure Visibility Wind Dir Wind Speed Gust Speed Precip Events Conditions
12:15 AM 53.6 °F - 51.8 °F 94% 29.75 in 1.2 mi SE 17.3 mph 20.7 mph N/A Rain Light Rain
12:35 AM 53.6 °F - 53.6 °F 100% 29.74 in 1.5 mi SE 15.0 mph 23.0 mph N/A Rain Light Rain
12:55 AM 53.6 °F - 53.6 °F 100% 29.71 in 1.5 mi SE 17.3 mph - N/A Rain Light Rain
1:15 AM 53.6 °F - 53.6 °F 100% 29.70 in 1.5 mi SSE 16.1 mph - N/A   Overcast
1:35 AM 53.6 °F - 53.6 °F 100% 29.70 in 1.5 mi SSE 15.0 mph - N/A   Light Drizzle
1:55 AM 55.4 °F - 53.6 °F 94% 29.74 in 1.8 mi South 8.1 mph - N/A Thunderstorm Drizzle
2:15 AM 55.4 °F - 53.6 °F 94% 29.72 in 1.8 mi SSE 10.4 mph - 0.06 in Rain , Thunderstorm Rain
2:35 AM 55.4 °F - 53.6 °F 94% 29.70 in 1.8 mi SE 8.1 mph - 0.15 in Rain , Thunderstorm Heavy Thunderstorms and Rain
2:55 AM 55.4 °F - 53.6 °F 94% 29.69 in 2.0 mi SE 5.8 mph - 0.29 in Rain , Thunderstorm Heavy Thunderstorms and Rain
3:15 AM 55.4 °F - 53.6 °F 94% 29.68 in 1.8 mi ENE 4.6 mph - 0.12 in Rain , Thunderstorm Heavy Thunderstorms and Rain
3:35 AM 55.4 °F - 53.6 °F 94% 29.68 in 2.0 mi NE 5.8 mph - 0.26 in Rain , Thunderstorm Heavy Thunderstorms and Rain
3:55 AM 55.4 °F - 53.6 °F 94% 29.67 in 2.5 mi East 5.8 mph - 0.35 in Rain , Thunderstorm Rain
4:15 AM 55.4 °F - 53.6 °F 94% 29.70 in 7.0 mi South 4.6 mph - 0.01 in Rain Light Rain
4:35 AM 55.4 °F - 55.4 °F 100% 29.71 in 7.0 mi SW 4.6 mph - 0.01 in   Overcast
4:55 AM 55.4 °F - 55.4 °F 100% 29.72 in 10.0 mi WSW 8.1 mph - 0.01 in   Overcast
5:15 AM 57.2 °F - 55.4 °F 94% 29.73 in 10.0 mi West 11.5 mph 16.1 mph N/A   Overcast
5:35 AM 55.4 °F - 51.8 °F 88% 29.74 in 10.0 mi West 11.5 mph 18.4 mph N/A   Overcast
5:55 AM 55.4 °F - 46.4 °F 72% 29.75 in 10.0 mi West 12.7 mph 17.3 mph N/A   Overcast
6:15 AM 53.6 °F - 39.2 °F 58% 29.76 in 10.0 mi WNW 10.4 mph 16.1 mph N/A   Overcast
6:35 AM 53.6 °F - 37.4 °F 54% 29.77 in 10.0 mi West 10.4 mph - N/A   Overcast
6:55 AM 51.8 °F - 37.4 °F 58% 29.77 in 10.0 mi West 9.2 mph - N/A   Overcast
7:15 AM 51.8 °F - 37.4 °F 58% 29.78 in 10.0 mi West 8.1 mph - N/A   Overcast
7:35 AM 51.8 °F - 37.4 °F 58% 29.79 in 10.0 mi West 8.1 mph - N/A   Mostly Cloudy
7:55 AM 51.8 °F - 35.6 °F 54% 29.79 in 10.0 mi WSW 6.9 mph - N/A   Scattered Clouds
8:15 AM 51.8 °F - 35.6 °F 54% 29.80 in 10.0 mi WSW 6.9 mph - N/A   Clear
8:35 AM 51.8 °F - 37.4 °F 58% 29.80 in 10.0 mi West 9.2 mph - N/A   Clear
8:55 AM 53.6 °F - 35.6 °F 51% 29.80 in 10.0 mi West 10.4 mph - N/A   Clear
9:15 AM 55.4 °F - 33.8 °F 44% 29.81 in 10.0 mi West 12.7 mph 21.9 mph N/A   Clear
9:35 AM 55.4 °F - 32.0 °F 41% 29.82 in 10.0 mi West 15.0 mph 18.4 mph N/A   Clear
9:55 AM 55.4 °F - 30.2 °F 38% 29.83 in 10.0 mi West 17.3 mph 24.2 mph N/A   Clear
10:15 AM 57.2 °F - 30.2 °F 36% 29.84 in 10.0 mi West 19.6 mph - N/A   Clear
10:35 AM 57.2 °F - 28.4 °F 33% 29.84 in 10.0 mi West 13.8 mph 20.7 mph N/A   Clear
10:55 AM 59.0 °F - 30.2 °F 34% 29.85 in 10.0 mi West 12.7 mph 20.7 mph N/A   Clear
11:15 AM 59.0 °F - 28.4 °F 31% 29.85 in 10.0 mi West 11.5 mph 17.3 mph N/A   Clear
11:35 AM 59.0 °F - 30.2 °F 34% 29.85 in 10.0 mi West 11.5 mph - N/A   Clear
11:55 AM 59.0 °F - 30.2 °F 34% 29.85 in 10.0 mi West 10.4 mph 17.3 mph N/A   Clear
12:15 PM 60.8 °F - 30.2 °F 31% 29.84 in 10.0 mi West 13.8 mph - N/A   Clear
12:35 PM 60.8 °F - 30.2 °F 31% 29.84 in 10.0 mi WSW 10.4 mph 19.6 mph N/A   Clear
12:55 PM 60.8 °F - 30.2 °F 31% 29.83 in 10.0 mi WSW 12.7 mph 17.3 mph N/A   Clear
1:15 PM 62.6 °F - 30.2 °F 30% 29.83 in 10.0 mi WSW 13.8 mph 18.4 mph N/A   Clear
1:35 PM 62.6 °F - 30.2 °F 30% 29.82 in 10.0 mi West 12.7 mph 21.9 mph N/A   Clear
1:55 PM 62.6 °F - 28.4 °F 27% 29.82 in 10.0 mi WSW 11.5 mph - N/A   Clear
2:15 PM 62.6 °F - 30.2 °F 30% 29.83 in 10.0 mi West 13.8 mph 18.4 mph N/A   Clear
2:35 PM 62.6 °F - 28.4 °F 27% 29.83 in 10.0 mi WSW 10.4 mph 18.4 mph N/A   Clear
2:55 PM 62.6 °F - 28.4 °F 27% 29.83 in 10.0 mi West 12.7 mph 20.7 mph N/A   Clear
3:15 PM 62.6 °F - 28.4 °F 27% 29.84 in 10.0 mi West 13.8 mph 18.4 mph N/A   Clear
3:35 PM 62.6 °F - 26.6 °F 26% 29.84 in 10.0 mi West 12.7 mph - N/A   Clear
3:55 PM 62.6 °F - 28.4 °F 27% 29.84 in 10.0 mi WSW 6.9 mph - N/A   Clear
4:15 PM 62.6 °F - 28.4 °F 27% 29.84 in 10.0 mi West 9.2 mph - N/A   Clear
4:35 PM 64.4 °F - 28.4 °F 26% 29.85 in 10.0 mi West 9.2 mph - N/A   Clear
4:55 PM 62.6 °F - 28.4 °F 27% 29.86 in 10.0 mi West 5.8 mph - N/A   Clear
5:15 PM 62.6 °F - 28.4 °F 27% 29.87 in 10.0 mi West 8.1 mph - N/A   Clear
5:35 PM 60.8 °F - 28.4 °F 29% 29.88 in 10.0 mi WNW 5.8 mph - N/A   Clear
5:55 PM 60.8 °F - 28.4 °F 29% 29.88 in 10.0 mi WNW 4.6 mph - N/A   Clear
6:15 PM 59.0 °F - 28.4 °F 31% 29.89 in 10.0 mi NW 4.6 mph - N/A   Clear
6:35 PM 55.4 °F - 28.4 °F 36% 29.90 in 10.0 mi WNW 3.5 mph - N/A   Clear
6:55 PM 55.4 °F - 28.4 °F 36% 29.92 in 10.0 mi WNW 4.6 mph - N/A   Clear
7:15 PM 55.4 °F - 26.6 °F 33% 29.93 in 10.0 mi WNW 6.9 mph - N/A   Clear
7:35 PM 55.4 °F - 26.6 °F 33% 29.94 in 10.0 mi WNW 8.1 mph - N/A   Clear
7:55 PM 55.4 °F - 26.6 °F 33% 29.95 in 10.0 mi WNW 4.6 mph - N/A   Clear
8:15 PM 55.4 °F - 26.6 °F 33% 29.96 in 10.0 mi West 4.6 mph - N/A   Clear
8:35 PM 53.6 °F - 26.6 °F 35% 29.98 in 10.0 mi WNW 5.8 mph - N/A   Clear
8:55 PM 51.8 °F - 28.4 °F 41% 29.99 in 10.0 mi West 3.5 mph - N/A   Clear
9:15 PM 53.6 °F - 26.6 °F 35% 30.00 in 10.0 mi WNW 5.8 mph - N/A   Clear
9:35 PM 53.6 °F - 26.6 °F 35% 30.00 in 10.0 mi NW 3.5 mph - N/A   Clear
9:55 PM 50.0 °F - 28.4 °F 43% 30.00 in 10.0 mi Calm Calm - N/A   Clear
10:15 PM 46.4 °F 42.9 °F 30.2 °F 53% 30.01 in 10.0 mi NNW 6.9 mph - N/A   Clear
10:35 PM 46.4 °F 44.3 °F 30.2 °F 53% 30.01 in 10.0 mi North 4.6 mph - N/A   Clear
10:55 PM 44.6 °F 38.8 °F 32.0 °F 61% 30.02 in 10.0 mi North 11.5 mph - N/A   Clear
11:15 PM 46.4 °F 41.1 °F 32.0 °F 57% 30.02 in 10.0 mi NNE 11.5 mph - N/A   Clear
11:35 PM 46.4 °F 41.5 °F 32.0 °F 57% 30.03 in 10.0 mi NNE 10.4 mph - N/A   Clear
11:55 PM 46.4 °F 41.5 °F 32.0 °F 57% 30.04 in 10.0 mi NNE 10.4 mph - N/A   Clear